Eelde, Netherlands

5:26 PM CET on February 09, 2016 (GMT +0100)
Eelde

Weather History for EHGG - December, 2012

Change the Weather History Date:

Monday, December 24, 2012

  Actual Average Record
Temperature  
Mean Temperature 48 °F -  
Max Temperature 53 °F 39 °F 53 °F (1997)
Min Temperature 43 °F 30 °F 21 °F (1996)
Degree Days  
Heating Degree Days 17    
Moisture  
Dew Point 46 °F    
Average Humidity 91    
Maximum Humidity 100    
Minimum Humidity 78    
Precipitation  
Precipitation 0.12 in 0.09 in - ()
Sea Level Pressure  
Sea Level Pressure 29.56 in    
Wind  
Wind Speed 11 mph ()    
Max Wind Speed 32 mph    
Max Gust Speed 44 mph    
Visibility 5.1 miles    
Events Rain    
Averages and records for this station are not official NWS values.
T = Trace of Precipitation, MM = Missing Value Source: Averaged Metar Reports

Daily Weather History Graph

Daily Weather History Graph

Search for Another Location

Airport or City:

Trip Planner

Search our weather history database for the weather conditions in past years. The results will help you decide how hot, cold, wet, or windy it might be!

Date:

Astronomy

Dec. 24, 2012 Rise Set
Actual Time 8:47 AM CET 4:19 PM CET
Civil Twilight 8:04 AM CET 5:02 PM CET
Nautical Twilight 7:19 AM CET 5:47 PM CET
Astronomical Twilight 6:36 AM CET 6:29 PM CET
Moon 1:49 PM CET (12/24) 4:56 AM CET (12/24)
Length of Visible Light 8h 57m
Length of Day
7h 32m
Waxing Gibbous, 86% of the Moon is Illuminated
Dec 24
Waxing Gibbous
Dec 28
Full
Jan 5
Last Quarter
Jan 11
New
Jan 19
First Quarter

Hourly Weather History & Observations

Time (CET) Temp. Windchill Dew Point Humidity Pressure Visibility Wind Dir Wind Speed Gust Speed Precip Events Conditions
12:25 AM 46.4 °F 41.1 °F 42.8 °F 87% 29.68 in 6.2 mi WSW 11.5 mph - N/A   Unknown
12:55 AM 46.4 °F 41.1 °F 42.8 °F 87% 29.68 in 6.2 mi WSW 11.5 mph - N/A   Unknown
1:00 AM 45 °F - 43 °F 89% 29.70 in 6 mi SW 11.2 mph - -   Partly Cloudy
1:25 AM 44.6 °F 39.7 °F 42.8 °F 93% 29.68 in 5.6 mi SW 9.2 mph - N/A   Unknown
1:55 AM 44.6 °F 39.2 °F 42.8 °F 93% 29.68 in 5.0 mi SW 10.4 mph - N/A   Scattered Clouds
2:25 AM 46.4 °F 41.9 °F 44.6 °F 93% 29.68 in 5.0 mi WSW 9.2 mph - N/A   Unknown
2:55 AM 46.4 °F 41.5 °F 44.6 °F 93% 29.68 in 6.2 mi WSW 10.4 mph - N/A   Unknown
3:25 AM 46.4 °F 41.9 °F 44.6 °F 93% 29.68 in 5.0 mi SW 9.2 mph - N/A   Scattered Clouds
3:55 AM 46.4 °F 41.5 °F 44.6 °F 93% 29.68 in 4.3 mi SW 10.4 mph - N/A   Mostly Cloudy
4:00 AM 46 °F - 45 °F 95% 29.71 in 4 mi WSW 11.2 mph - -   Mist
4:25 AM 46.4 °F 41.5 °F 46.4 °F 100% 29.68 in 3.7 mi WSW 10.4 mph - N/A   Overcast
4:55 AM 46.4 °F 41.1 °F 44.6 °F 93% 29.68 in 4.3 mi WSW 11.5 mph - N/A   Mostly Cloudy
5:25 AM 46.4 °F 41.9 °F 44.6 °F 93% 29.68 in 4.3 mi WSW 9.2 mph - N/A   Mostly Cloudy
5:55 AM 46.4 °F 42.4 °F 44.6 °F 93% 29.68 in 4.3 mi SW 8.1 mph - N/A   Mostly Cloudy
6:25 AM 46.4 °F 41.5 °F 44.6 °F 93% 29.68 in 4.3 mi SW 10.4 mph - N/A   Mostly Cloudy
6:55 AM 46.4 °F 41.9 °F 44.6 °F 93% 29.68 in 3.7 mi SW 9.2 mph - N/A   Overcast
7:00 AM 47 °F - 45 °F 92% 29.70 in 4 mi SW 8.9 mph - -   Mist
7:25 AM 46.4 °F 42.4 °F 44.6 °F 93% 29.68 in 4.3 mi SW 8.1 mph - N/A   Overcast
7:55 AM 46.4 °F 42.4 °F 44.6 °F 93% 29.68 in 5.0 mi SW 8.1 mph - N/A   Overcast
8:25 AM 46.4 °F 43.5 °F 44.6 °F 93% 29.68 in 5.0 mi South 5.8 mph - N/A   Overcast
8:55 AM 46.4 °F 43.5 °F 44.6 °F 93% 29.68 in 5.0 mi SSW 5.8 mph - N/A   Overcast
9:25 AM 46.4 °F 42.9 °F 46.4 °F 100% 29.68 in 4.3 mi South 6.9 mph - N/A   Overcast
9:55 AM 46.4 °F 42.4 °F 46.4 °F 100% 29.68 in 3.7 mi SSW 8.1 mph - N/A   Overcast
10:00 AM 47 °F - 46 °F 93% 29.68 in 4 mi South 8.9 mph - -   Mist
10:25 AM 48.2 °F - 46.4 °F 93% 29.68 in 3.7 mi SSW 9.2 mph - N/A   Overcast
10:55 AM 46.4 °F 42.4 °F 46.4 °F 100% 29.68 in 3.1 mi South 8.1 mph - N/A Rain Light Rain
11:25 AM 46.4 °F 41.5 °F 46.4 °F 100% 29.65 in 3.1 mi South 10.4 mph - N/A Rain Light Rain
11:55 AM 46.4 °F 42.9 °F 44.6 °F 93% 29.65 in 3.7 mi South 6.9 mph - N/A Rain Light Rain
12:25 PM 46.4 °F 42.9 °F 44.6 °F 93% 29.65 in - South 6.9 mph - N/A Rain Light Rain
12:55 PM 46.4 °F 42.9 °F 44.6 °F 93% 29.62 in - SSE 6.9 mph - N/A   Drizzle
1:00 PM 46 °F - 45 °F 94% 29.61 in 3 mi SE 6.7 mph - - Rain Drizzle
1:25 PM 46.4 °F 42.9 °F 44.6 °F 93% 29.59 in 1.5 mi SE 6.9 mph - N/A Rain Drizzle
1:55 PM 46.4 °F 41.9 °F 44.6 °F 93% 29.56 in 1.6 mi SE 9.2 mph - N/A Rain Light Rain
2:25 PM 46.4 °F 41.9 °F 44.6 °F 93% 29.53 in - SSE 9.2 mph - N/A   Drizzle
2:55 PM 46.4 °F 41.9 °F 46.4 °F 100% 29.50 in 3.7 mi SSE 9.2 mph - N/A   Overcast
3:25 PM 48.2 °F - 46.4 °F 93% 29.50 in - South 8.1 mph - N/A   Overcast
3:55 PM 48.2 °F - 48.2 °F 100% 29.47 in 3.1 mi South 8.1 mph - N/A   Overcast
4:00 PM 49 °F - 48 °F 95% 29.48 in 3 mi SSE 8.9 mph - -   Mist
4:25 PM 50.0 °F - 48.2 °F 94% 29.44 in 3.7 mi South 10.4 mph - N/A   Mostly Cloudy
4:55 PM 50.0 °F - 48.2 °F 94% 29.44 in 5.0 mi South 11.5 mph - N/A   Mostly Cloudy
5:25 PM 50.0 °F - 48.2 °F 94% 29.42 in 6.2 mi South 13.8 mph - N/A   Scattered Clouds
5:55 PM 50.0 °F - 48.2 °F 94% 29.39 in 6.2 mi South 16.1 mph - N/A   Unknown
6:25 PM 51.8 °F - 48.2 °F 88% 29.36 in 6.2 mi South 19.6 mph - N/A   Unknown
6:55 PM 51.8 °F - 48.2 °F 88% 29.36 in 6.2 mi South 20.7 mph - N/A   Partly Cloudy
7:00 PM 52 °F - 48 °F 83% 29.37 in 16 mi South 20.1 mph - -   Partly Cloudy
7:25 PM 51.8 °F - 48.2 °F 88% 29.36 in 6.2 mi South 20.7 mph - N/A   Overcast
7:55 PM 53.6 °F - 48.2 °F 82% 29.33 in 6.2 mi SSW 20.7 mph - N/A   Overcast
8:25 PM 53.6 °F - 48.2 °F 82% 29.33 in 6.2 mi SSW 23.0 mph 36.8 mph N/A   Overcast
8:55 PM 53.6 °F - 48.2 °F 82% 29.33 in 6.2 mi SSW 25.3 mph - N/A   Overcast
9:25 PM 51.8 °F - 48.2 °F 88% 29.33 in 6.2 mi SW 26.5 mph 38.0 mph N/A   Overcast
9:55 PM 51.8 °F - 46.4 °F 82% 29.36 in 6.2 mi WSW 32.2 mph 43.7 mph N/A   Mostly Cloudy
10:00 PM 51 °F - 46 °F 78% 29.39 in 12 mi WSW 31.3 mph - -   Overcast
10:25 PM 50.0 °F - 44.6 °F 82% 29.39 in 6.2 mi WSW 25.3 mph 36.8 mph N/A   Mostly Cloudy
10:55 PM 48.2 °F - 42.8 °F 82% 29.42 in 6.2 mi WSW 27.6 mph 41.4 mph N/A   Overcast
11:25 PM 48.2 °F - 42.8 °F 82% 29.42 in 6.2 mi WSW 19.6 mph - N/A   Overcast
11:55 PM 48.2 °F - 42.8 °F 82% 29.44 in 6.2 mi WSW 18.4 mph - N/A   Overcast